2022-148B (54231 NORAD) Tracking and Keplerian Element Data

This shows tracking and keplerian element data for the satellite.

Feedback or suggestion? Click here.




ElementValue
Catalog54231
Name2022-148B
Epoch Orbit37
Epoch Day325.03084381
Epoch Year2022
RAAN213.1811
Inclination28.3375
Eccentricity0.7214855
Argument of Perigee188.6864
Mean Anonmoly53.3344
Mean Motion2.40622168
Decay Rate0.00088495
L11 54231U 22148B 22325.03084381 .00088495 15749-5 29976-2 0 9993
L22 54231 28.3375 213.1811 7214855 188.6864 53.3344 2.40622168 378



Live tracking and technical data element details for 2022-148B (NORAD 54231). 2022-148B can be tracked NOW for your location showing map with azimuth and elevation plus other details from your city location.







IsCatalogInMostPopularTable: catalog: 54231, numindb: 5
Update: records affected: 1



GetName: 54231 2022-148B

Hit Count: updated at: Sun, 04 Dec 2022 22:41:59 GMT